#timestamp,LO_Frequency,Hit,StdDev 
1513008015.5,286046999.8,N
1513008035.3,286046997.9,N
1513008055.2,286046995.7,N
1513008075.0,286046993.9,Y
1513008075.9,286046993.9,P
1513008095.8,286046997.8,N
1513008115.6,286046998.2,N
1513008135.4,286047002.7,N
1513008155.3,286047004.1,N
1513008175.1,286047003.5,N
1513008195.9,286047000.2,N
1513008215.7,286047000.8,N
1513008235.5,286046998.6,N
1513008255.4,286046999.9,N
1513008275.2,286047000.1,N
1513008295.0,286047002.3,N
1513008296.0,286047002.3,N
1513008315.8,286047002.0,N
1513008335.6,286047004.4,N
1513008355.5,286047004.0,N
1513008375.3,286047004.0,N
1513008395.1,286047002.3,N
1513008415.9,286047002.1,N
1513008435.7,286046999.9,N
1513008455.6,286047002.7,N
1513008475.4,286047000.8,N
1513008495.2,286047001.8,N
1513008515.1,286047003.7,N
1513008516.0,286047003.7,N
1513008535.8,286047002.6,N
1513008555.7,286046999.7,N
1513008575.5,286047002.3,N
1513008595.3,286047002.5,N
1513008615.2,286046999.9,N
1513008635.0,286047002.8,N
1513008635.9,286047002.8,N
1513008655.8,286047004.4,N
1513008675.6,286047001.3,N
1513008695.4,286047003.0,N
1513008715.3,286047004.7,Y
1513008735.1,286047004.4,P
1513008755.8,286047000.6,N
1513008775.7,286046998.5,N
1513008795.5,286047001.1,N
1513008815.4,286046998.4,N
1513008835.2,286046998.5,N
1513008855.0,286046998.8,N
1513008855.9,286046998.8,N
1513008875.8,286046999.5,N
1513008895.6,286046999.1,N
1513008915.5,286047000.9,N
1513008935.3,286047001.2,N
1513008955.1,286047002.2,N
1513008975.9,286047002.7,N
1513008995.7,286047004.0,N
1513009015.6,286047002.6,N
1513009035.4,286047000.8,N
1513009055.2,286046999.6,N
1513009075.1,286046997.5,N
1513009076.0,286046997.5,N
1513009095.8,286046995.2,N
1513009115.6,286046996.5,N
1513009135.5,286046996.8,N
1513009155.3,286046995.7,N
1513009175.2,286046995.4,N
1513009195.9,286046995.3,N
1513009215.7,286046996.2,N
1513009235.6,286046995.2,N
1513009255.4,286046999.3,N
1513009275.3,286046998.2,N
1513009295.1,286046998.8,N
1513009296.0,286046998.8,N
1513009315.8,286046998.0,N
1513009335.7,286046999.6,N
1513009355.5,286046998.7,N
1513009375.3,286047004.4,N
1513009395.2,286047001.9,N
1513009415.0,286047006.0,N
1513009415.9,286047006.0,N
1513009435.8,286047004.0,N
1513009455.6,286047003.5,N
1513009475.4,286047002.2,N
1513009495.3,286047000.0,N
1513009515.1,286047000.4,N
1513009535.9,286046996.5,N
1513009555.7,286046998.2,N
1513009575.5,286046998.9,N
1513009595.4,286046999.4,N
1513009615.2,286047001.3,N
1513009635.1,286047002.3,N
1513009636.0,286047002.3,N
1513009655.8,286047000.5,N
1513009675.6,286047001.0,N
1513009695.5,286047002.1,N
1513009715.3,286047001.9,N
1513009735.1,286046998.5,N
1513009755.9,286046999.2,N
1513009775.7,286046999.1,N
1513009795.6,286046998.5,N
1513009815.4,286047001.0,N
1513009835.2,286047002.2,N
1513009855.1,286046999.8,N
1513009856.0,286046999.8,N
1513009875.8,286047002.8,N
1513009895.7,286047000.0,N
1513009915.5,286047000.9,N
1513009935.3,286046994.9,N
1513009955.2,286046997.3,N
1513009975.0,286046999.3,N
1513009975.9,286046999.3,N
1513009995.8,286047000.5,N
1513010015.6,286046999.8,N
1513010035.4,286046999.8,N
1513010055.3,286047000.3,N
1513010075.1,286046998.6,N
1513010095.8,286046997.6,N
1513010115.7,286046996.8,N
1513010135.5,286046999.5,N
1513010155.4,286046997.1,N
1513010175.2,286046995.0,N
1513010195.0,286046997.1,N
1513010195.9,286046997.1,N
1513010215.8,286046999.2,N
1513010235.6,286047000.1,N
1513010255.5,286047000.2,N
1513010275.3,286046999.8,N
1513010295.1,286046996.8,N
1513010315.9,286046995.0,N
1513010335.7,286046997.3,N
1513010355.5,286046996.5,N
1513010375.4,286046997.2,N
1513010395.2,286046995.0,N
1513010415.1,286046993.7,Y
1513010416.0,286046993.7,P
1513010435.8,286046994.0,N
1513010455.6,286046995.5,N
1513010475.5,286046995.9,N
1513010495.3,286046999.0,N
1513010515.2,286046996.5,N
1513010535.0,286046998.1,N
1513010535.9,286046998.1,N
1513010555.7,286047001.2,N
1513010575.6,286047000.9,N
1513010595.4,286046999.3,N
1513010615.3,286046997.5,N
1513010635.1,286046997.7,N
1513010636.0,286046997.7,N
1513010655.8,286046996.6,N
1513010675.7,286046996.5,N
1513010695.5,286046999.1,N
1513010715.4,286047000.9,N
1513010735.2,286047000.7,N
1513010755.0,286047004.0,N
1513010755.9,286047004.0,N
1513010775.8,286047003.9,N
1513010795.6,286047001.4,N
1513010815.4,286047004.2,N
1513010835.3,286047005.2,N
1513010855.1,286047001.4,N
1513010875.9,286047001.5,N
1513010895.7,286047000.2,N
1513010915.5,286046999.9,N
1513010935.4,286047000.6,N
1513010955.2,286047002.3,N
1513010975.1,286047003.8,N
1513010976.0,286047003.8,N
1513010995.8,286047003.8,N
1513011015.6,286047005.4,N
1513011035.5,286047006.9,N
1513011055.3,286047007.6,N
1513011075.1,286047003.0,N
1513011095.9,286047002.0,N
1513011115.7,286047002.6,N
1513011135.6,286047000.3,N
1513011155.4,286047000.7,N
1513011175.2,286047002.8,N
1513011195.1,286047002.0,N
1513011196.0,286047002.0,N
1513011215.8,286047004.3,N
1513011235.7,286047002.0,N
1513011255.5,286047002.1,N
1513011275.3,286046999.7,N
1513011295.2,286046998.1,N
1513011315.0,286046998.7,N
1513011315.9,286046998.7,N
1513011335.8,286046998.8,N
1513011355.6,286047001.2,N
1513011375.4,286047004.0,N
1513011395.3,286047001.8,N
1513011415.1,286047001.6,N
1513011435.8,286047002.5,N
1513011455.7,286047004.1,N
1513011475.5,286047004.2,N
1513011495.4,286047002.7,N
1513011515.2,286047002.4,N
1513011535.0,286047002.1,N
1513011535.9,286047002.1,N
1513011555.8,286047001.9,N
1513011575.6,286046999.6,N
1513011595.5,286046998.6,N
